Copper Mountain, CO

9:45 AM MDT on August 18, 2017 (GMT -0600)
Copper Mountain

Weather History for KCCU - March, 2014

Change the Weather History Date:

Sunday, March 9, 2014

  Actual Average Record
Temperature  
Mean Temperature 32 °F -  
Max Temperature 41 °F - 41 °F (2004)
Min Temperature 23 °F - -7 °F (2002)
Degree Days  
Heating Degree Days 33    
Month to date heating degree days  
Cooling Degree Days 0    
Month to date cooling degree days  
Moisture  
Dew Point -16 °F    
Average Humidity 13    
Maximum Humidity 25    
Minimum Humidity 5    
Precipitation  
Precipitation 0.01 in - 0.09 in (2002)
Sea Level Pressure  
Sea Level Pressure 30.43 in    
Wind  
Wind Speed 13 mph (West)    
Max Wind Speed 28 mph    
Max Gust Speed 36 mph    
Visibility 10 miles    
Events      
T = Trace of Precipitation, MM = Missing Value Source: NWS Daily Summary

Daily Weather History Graph

Daily Weather History Graph

Search for Another Location

Airport or City:

Trip Planner

Search our weather history database for the weather conditions in past years. The results will help you decide how hot, cold, wet, or windy it might be!

Date:

Astronomy

Mar. 09, 2014 Rise Set
Actual Time 7:25 AM MDT 7:05 PM MDT
Civil Twilight 6:58 AM MDT 7:32 PM MDT
Nautical Twilight 6:27 AM MDT 8:03 PM MDT
Astronomical Twilight 5:56 AM MDT 8:34 PM MDT
Moon 1:01 PM MDT (3/9) 3:52 AM MDT (3/9)
Length of Visible Light 12h 33m
Length of Day
11h 40m
First Quarter, 61% of the Moon is Illuminated
Mar 9
First Quarter
Mar 16
Full
Mar 23
Last Quarter
Mar 30
New
Apr 7
First Quarter

Hourly Weather History & Observations

Time (MDT) Temp. Windchill Dew Point Humidity Pressure Visibility Wind Dir Wind Speed Gust Speed Precip Events Conditions
12:16 AM 24.8 °F - -7.6 °F 24% 30.44 in 10.0 mi Calm Calm - N/A   Clear
12:36 AM 26.6 °F 20.0 °F -13.0 °F 17% 30.44 in 10.0 mi SSW 5.8 mph - N/A   Clear
12:56 AM 24.8 °F 16.1 °F -13.0 °F 19% 30.44 in 10.0 mi WSW 8.1 mph - N/A   Clear
1:16 AM 24.8 °F 14.6 °F -13.0 °F 19% 30.44 in 10.0 mi West 10.4 mph - N/A   Clear
1:36 AM 23.0 °F 13.9 °F -13.0 °F 20% 30.45 in 10.0 mi WSW 8.1 mph - N/A   Clear
1:56 AM 26.6 °F 16.2 °F -16.6 °F 14% 30.45 in 10.0 mi West 11.5 mph - N/A   Clear
3:16 AM 26.6 °F - -18.4 °F 13% 30.44 in 10.0 mi North - - N/A   Clear
3:36 AM 26.6 °F 17.5 °F -20.2 °F 12% 30.44 in 10.0 mi WSW 9.2 mph 16.1 mph N/A   Clear
3:56 AM 26.6 °F 19.1 °F -20.2 °F 12% 30.44 in 10.0 mi WSW 6.9 mph - N/A   Clear
4:16 AM 26.6 °F 18.2 °F -18.4 °F 13% 30.43 in 10.0 mi West 8.1 mph - N/A   Clear
4:34 AM 26.6 °F - -20.2 °F 12% 30.44 in 10.0 mi North - - N/A   Clear
4:54 AM 26.6 °F 14.3 °F -23.8 °F 10% 30.44 in 10.0 mi West 16.1 mph - N/A   Clear
5:16 AM 24.8 °F 15.3 °F -20.2 °F 13% 30.44 in 10.0 mi WSW 9.2 mph - N/A   Clear
5:36 AM 26.6 °F 16.8 °F -20.2 °F 12% 30.44 in 10.0 mi West 10.4 mph 16.1 mph N/A   Clear
5:56 AM 26.6 °F 14.7 °F -23.8 °F 10% 30.45 in 10.0 mi West 15.0 mph - N/A   Clear
6:16 AM 24.8 °F 11.1 °F -20.2 °F 13% 30.44 in 10.0 mi West 18.4 mph - N/A   Clear
6:35 AM 26.6 °F 13.1 °F -22.0 °F 11% 30.45 in 10.0 mi West 19.6 mph - N/A   Clear
6:56 AM 24.8 °F 11.5 °F -18.4 °F 14% 30.46 in 10.0 mi West 17.3 mph - N/A   Clear
7:16 AM 24.8 °F 10.7 °F -16.6 °F 16% 30.46 in 10.0 mi West 19.6 mph - N/A   Clear
7:36 AM 26.6 °F 15.7 °F -22.0 °F 11% 30.46 in 10.0 mi West 12.7 mph 20.7 mph N/A   Clear
7:56 AM 26.6 °F 16.2 °F -18.4 °F 13% 30.46 in 10.0 mi WSW 11.5 mph 21.9 mph N/A   Clear
8:15 AM 26.6 °F 20.0 °F -22.0 °F 11% 30.46 in 10.0 mi WSW 5.8 mph - N/A   Clear
8:36 AM 30.2 °F 20.2 °F -34.6 °F 5% 30.46 in 10.0 mi West 12.7 mph - N/A   Clear
8:56 AM 28.4 °F 16.2 °F -29.2 °F 7% 30.47 in 10.0 mi West 17.3 mph - N/A   Clear
9:16 AM 30.2 °F 20.8 °F -31.0 °F 6% 30.47 in 10.0 mi West 11.5 mph - N/A   Clear
9:36 AM 30.2 °F 21.9 °F -23.8 °F 9% 30.48 in 10.0 mi West 9.2 mph - N/A   Clear
9:56 AM 30.2 °F 24.3 °F -16.6 °F 13% 30.48 in 10.0 mi SW 5.8 mph - N/A   Clear
10:16 AM 32.0 °F 24.8 °F -20.2 °F 10% 30.48 in 10.0 mi SW 8.1 mph - N/A   Clear
10:35 AM 33.8 °F 23.5 °F -18.4 °F 10% 30.48 in 10.0 mi West 16.1 mph 21.9 mph N/A   Clear
10:56 AM 33.8 °F 22.5 °F -16.6 °F 11% 30.48 in 10.0 mi West 19.6 mph 24.2 mph N/A   Clear
11:16 AM 33.8 °F 22.5 °F -2.2 °F 22% 30.49 in 10.0 mi West 19.6 mph 25.3 mph N/A   Clear
11:36 AM 33.8 °F 23.2 °F 1.4 °F 25% 30.48 in 10.0 mi West 17.3 mph - N/A   Clear
11:55 AM 35.6 °F 26.6 °F 1.4 °F 24% 30.48 in 10.0 mi West 13.8 mph - N/A   Clear
12:16 PM 37.4 °F 29.3 °F -5.8 °F 16% 30.48 in 10.0 mi WSW 12.7 mph 20.7 mph N/A   Clear
12:36 PM 37.4 °F 27.2 °F -9.4 °F 13% 30.47 in 10.0 mi West 19.6 mph 23.0 mph N/A   Clear
12:56 PM 37.4 °F 29.3 °F -14.8 °F 10% 30.47 in 10.0 mi West 12.7 mph 26.5 mph N/A   Clear
1:16 PM 37.4 °F 26.4 °F -16.6 °F 9% 30.47 in 10.0 mi West 23.0 mph 28.8 mph N/A   Clear
1:35 PM 39.2 °F 29.8 °F -13.0 °F 10% 30.46 in 10.0 mi West 18.4 mph 33.4 mph N/A   Clear
1:56 PM 41.0 °F 32.8 °F -5.8 °F 14% 30.46 in 10.0 mi West 16.1 mph 23.0 mph N/A   Clear
2:16 PM 39.2 °F 29.3 °F -9.4 °F 12% 30.45 in 10.0 mi West 20.7 mph 26.5 mph N/A   Clear
2:36 PM 41.0 °F 32.5 °F -11.2 °F 11% 30.44 in 10.0 mi West 17.3 mph 26.5 mph N/A   Clear
2:56 PM 37.4 °F 26.4 °F -14.8 °F 10% 30.44 in 10.0 mi West 23.0 mph 32.2 mph N/A   Clear
3:16 PM 41.0 °F 32.8 °F -9.4 °F 12% 30.44 in 10.0 mi West 16.1 mph 26.5 mph N/A   Clear
3:36 PM 41.0 °F 32.8 °F -13.0 °F 10% 30.43 in 10.0 mi West 16.1 mph 25.3 mph N/A   Clear
3:56 PM 41.0 °F 31.9 °F -14.8 °F 9% 30.43 in 10.0 mi West 19.6 mph 31.1 mph N/A   Clear
4:16 PM 39.2 °F 29.6 °F -22.0 °F 7% 30.43 in 10.0 mi West 19.6 mph 31.1 mph 0.01 in   Clear
4:36 PM 37.4 °F 25.4 °F -25.6 °F 6% 30.42 in 7.0 mi West 27.6 mph 35.7 mph 0.01 in   Clear
4:56 PM 37.4 °F 26.1 °F -18.4 °F 9% 30.41 in 10.0 mi West 24.2 mph 27.6 mph N/A   Clear
5:16 PM 37.4 °F 27.8 °F -18.4 °F 9% 30.41 in 10.0 mi West 17.3 mph 29.9 mph N/A   Clear
5:36 PM 37.4 °F 26.9 °F -18.4 °F 9% 30.41 in 10.0 mi West 20.7 mph 26.5 mph N/A   Clear
5:56 PM 37.4 °F 28.5 °F -7.6 °F 15% 30.41 in 10.0 mi West 15.0 mph - N/A   Clear
6:16 PM 37.4 °F 27.5 °F -5.8 °F 16% 30.41 in 10.0 mi West 18.4 mph - N/A   Clear
6:36 PM 35.6 °F 24.8 °F -9.4 °F 14% 30.40 in 10.0 mi West 19.6 mph - N/A   Clear
6:56 PM 33.8 °F 22.2 °F -11.2 °F 14% 30.40 in 10.0 mi West 20.7 mph - N/A   Clear
7:15 PM 33.8 °F 21.3 °F -16.6 °F 11% 30.40 in 10.0 mi West 24.2 mph - N/A   Clear
7:36 PM 33.8 °F 22.5 °F -14.8 °F 12% 30.40 in 10.0 mi West 19.6 mph - N/A   Clear
7:56 PM 32.0 °F 19.8 °F -9.4 °F 17% 30.40 in 10.0 mi West 20.7 mph - N/A   Clear
8:16 PM 32.0 °F 21.6 °F -7.6 °F 18% 30.40 in 10.0 mi WSW 15.0 mph 27.6 mph N/A   Clear
8:36 PM 30.2 °F 17.8 °F -9.4 °F 18% 30.41 in 10.0 mi West 19.6 mph - N/A   Clear
8:56 PM 30.2 °F 19.3 °F -11.2 °F 16% 30.40 in 10.0 mi WSW 15.0 mph 20.7 mph N/A   Clear
9:16 PM 30.2 °F 18.9 °F -14.8 °F 14% 30.40 in 10.0 mi WSW 16.1 mph 24.2 mph N/A   Clear
9:36 PM 32.0 °F 20.1 °F -18.4 °F 11% 30.41 in 10.0 mi West 19.6 mph 24.2 mph N/A   Clear
9:56 PM 30.2 °F 16.8 °F -14.8 °F 14% 30.40 in 10.0 mi West 23.0 mph 26.5 mph N/A   Clear
10:16 PM 28.4 °F 17.0 °F -14.8 °F 15% 30.40 in 10.0 mi West 15.0 mph 21.9 mph N/A   Clear
10:36 PM 30.2 °F 19.8 °F -14.8 °F 14% 30.40 in 10.0 mi WSW 13.8 mph 20.7 mph N/A   Clear
10:56 PM 28.4 °F 16.2 °F -18.4 °F 12% 30.40 in 10.0 mi West 17.3 mph 21.9 mph N/A   Clear
11:16 PM 32.0 °F 22.1 °F -23.8 °F 8% 30.39 in 10.0 mi WSW 13.8 mph 24.2 mph N/A   Clear
11:36 PM 32.0 °F 19.5 °F -23.8 °F 8% 30.38 in 10.0 mi West 21.9 mph 28.8 mph N/A   Clear
11:56 PM 32.0 °F 20.5 °F -25.6 °F 7% 30.38 in 10.0 mi WSW 18.4 mph 29.9 mph N/A   Clear
12:16 AM 32.0 °F 19.5 °F -27.4 °F 7% 30.36 in 10.0 mi West 21.9 mph 33.4 mph N/A   Clear
12:36 AM 32.0 °F 18.9 °F -23.8 °F 8% 30.36 in 10.0 mi WSW 24.2 mph 35.7 mph N/A   Clear
12:56 AM 32.0 °F 19.5 °F -25.6 °F 7% 30.36 in 10.0 mi WSW 21.9 mph 33.4 mph N/A   Clear